Flag for Canada Weather past 2 weeks in Haldimand, Ontario, Canada

Now
57 °F

Passing clouds.


Feels Like: 57 °F
Forecast: 58 / 74 °F
Wind: 5 mph from West

Location: Hamilton Airport

Current Time: Aug 29, 2015 at 2:11:07 AM

Latest Report: Aug 29, 2015 at 1:00 AM


Visibility: 15 mi

Pressure: 30.17 "Hg

Humidity: 100%

Dew point: 57 °F

Location of HaldimandLocation

Historic Weather in Haldimand — Graph

°F

Haldimand temperature yesterday

Maximum temperature yesterday: 73 °F (at 4:00 PM)
Minimum temperature yesterday: 48 °F (at 7:00 AM)
Average temperature yesterday: 61 °F

Past Weeks' High & Low Weather Summary

 TemperatureHumidityPressure
High86 °F (Aug 17, 1:00 PM)100% (Aug 14, 3:00 AM)30.23 "Hg (Aug 14, 3:00 AM)
Low48 °F (Aug 28, 7:00 AM)47% (Aug 22, 5:00 PM)29.71 "Hg (Aug 20, 6:00 AM)
Average67 °F80%30.02 "Hg
* Reported Aug 14 1:00 AM — Aug 29 1:00 AM, Haldimand, Weather by CustomWeather, © 2015

Note: Actual official high and low records may vary slightly from our data, if they occured in-between our weather recording intervals... More about our weather records

Advertising

Haldimand weather history for previous 24 hours

 ConditionsComfort  
Time TempWeatherWind HumidityBarometerVisibility
1:00 AM
Sat, Aug 29
57 °FPassing clouds.5 mph100%30.17 "Hg15 mi
12:00 AM57 °FPassing clouds.5 mph94%30.17 "Hg15 mi
11:00 PM
Fri, Aug 28
59 °FPassing clouds.6 mph94%30.17 "Hg15 mi
10:00 PM61 °FPassing clouds.5 mph88%30.17 "Hg15 mi
9:00 PM63 °FPartly sunny.6 mph83%30.16 "Hg15 mi
8:00 PM64 °FPartly sunny.6 mph78%30.16 "Hg15 mi
7:00 PM68 °FPartly sunny.8 mph73%30.16 "Hg12 mi
6:00 PM72 °FPartly sunny.10 mph61%30.16 "Hg15 mi
5:00 PM72 °FBroken clouds.7 mph57%30.16 "Hg12 mi
4:00 PM73 °FBroken clouds.9 mph53%30.17 "Hg15 mi
3:00 PM72 °FScattered clouds.7 mph57%30.19 "Hg15 mi
2:00 PM70 °FScattered clouds.No wind60%30.20 "Hg15 mi
1:00 PM68 °FScattered clouds.2 mph60%30.21 "Hg15 mi
12:00 PM68 °FPassing clouds.7 mph60%30.23 "Hg15 mi
11:00 AM66 °FScattered clouds.6 mph68%30.22 "Hg15 mi
10:00 AM64 °FPassing clouds.No wind68%30.22 "Hg15 mi
9:00 AM61 °FPassing clouds.3 mph77%30.23 "Hg15 mi
8:00 AM52 °FPassing clouds.2 mph100%30.22 "Hg15 mi
7:00 AM48 °FPassing clouds.3 mph94%30.22 "Hg15 mi
6:00 AM50 °FPassing clouds.No wind94%30.19 "Hg15 mi
5:00 AM52 °FPassing clouds.2 mph94%30.17 "Hg15 mi
4:00 AM50 °FPassing clouds.2 mph94%30.17 "Hg15 mi
3:00 AM54 °FPassing clouds.2 mph88%30.16 "Hg15 mi
2:00 AM55 °FPassing clouds.5 mph82%30.17 "Hg15 mi
Weather by CustomWeather, © 2015

See weather overviewHow to use our weather pages